Technologies within US hosting: Tenon Research

The below table lists all of the technologies within the US hosting category. Follow the link on the technology name to be taken to the statistics for that technology.

Name First Seen Last Seen # of times seen
Internap 2018-11-21 19:07:03 2020-07-04 16:38:40 1606
Amazon Virginia Region 2018-11-21 19:07:06 2020-07-07 06:00:29 18080
Savvis 2018-11-21 19:07:31 2020-07-03 14:47:38 1556
Fortress ITX 2018-11-21 19:07:49 2020-06-02 06:48:02 50
Amazon California Region 2018-11-21 19:08:12 2020-07-05 15:26:34 1736
Amazon Oregon Region 2018-11-21 19:08:21 2020-07-07 05:58:49 3352
nLayer Communications 2018-11-21 19:08:56 2020-07-03 14:48:15 3126
CenturyLink 2018-11-21 19:08:56 2020-07-07 05:54:10 4178
NTT America 2018-11-21 19:08:58 2020-07-07 05:53:30 6597
Akamai Hosted 2018-11-21 19:09:00 2020-07-07 05:53:57 10902
EzyRegistrations 2018-11-21 19:09:05 2019-04-15 00:19:05 5
SunGard 2018-11-21 19:09:16 2020-05-29 21:42:09 442
NetSource Communications 2018-11-21 19:10:05 2019-07-21 12:40:10 33
GoDaddy 2018-11-21 19:12:50 2020-07-06 19:24:42 2414
PhoenixNAP 2018-11-21 19:12:54 2019-09-12 10:34:52 161
Microsoft 2018-11-21 19:13:05 2020-07-04 23:51:53 3988
Ning Hosting 2018-11-21 19:13:08 2020-06-03 18:46:56 591
HP 2018-11-21 19:13:08 2019-05-21 14:58:03 116
Prolexic Technologies 2018-11-21 19:14:05 2020-07-04 08:39:44 408
HostGator 2018-11-21 19:14:08 2020-06-10 05:18:38 350
CyrusOne 2018-11-21 19:14:15 2020-07-04 03:36:37 700
Continental Broadband 2018-11-21 19:15:08 2020-05-29 21:44:13 81
Media Temple 2018-11-21 19:16:04 2020-06-10 16:30:13 1511
Rackspace 2018-11-21 19:17:10 2020-07-06 14:32:33 9625
EdgeCast Networks Hosting 2018-11-21 19:17:21 2020-04-08 14:56:59 1163
Incapsula 2018-11-21 19:17:34 2020-07-02 17:14:26 1478
Verizon 2018-11-21 19:17:35 2020-07-07 05:52:08 2888
Google 2018-11-21 19:17:59 2020-07-07 05:57:18 6680
esayDNS Hosted 2018-11-21 19:18:06 2020-01-07 19:40:32 64
DreamHost Hosting 2018-11-21 19:18:28 2020-07-01 23:33:01 476
UltraDNS neustar Hosting 2018-11-21 19:18:30 2020-05-29 02:06:34 612
Xiolink 2018-11-21 19:19:23 2019-06-26 09:43:56 32
iWeb 2018-11-21 19:20:39 2020-06-02 06:50:43 335
Time Warner 2018-11-21 19:22:48 2020-07-07 05:54:03 1768
Codero 2018-11-21 19:23:31 2019-11-06 15:52:15 192
Softlayer 2018-11-21 19:28:07 2020-07-04 03:35:07 3453
pair Networks Hosting 2018-11-21 19:28:50 2020-07-04 09:58:24 117
Hostway 2018-11-21 19:29:48 2020-05-25 05:44:42 169
Sprint 2018-11-21 19:31:30 2020-06-08 07:53:14 980
Level 3 Communications 2018-11-21 19:32:05 2020-07-06 22:02:04 3325
A2 Hosting 2018-11-21 19:34:29 2020-05-02 08:12:34 217
Digital Ocean 2018-11-21 19:34:36 2020-07-06 19:24:51 2408
Internet Names for Business 2018-11-21 19:35:06 2020-03-29 19:11:27 58
Cybercon 2018-11-21 19:38:01 2020-04-20 21:14:55 64
HostMySite 2018-11-21 19:41:39 2020-05-18 15:55:58 238
Wisconsin CyberLynk Network 2018-11-21 19:41:41 2018-12-14 21:03:35 8
Confluence Networks 2018-11-21 19:42:01 2020-07-03 09:47:52 356
Liquid Web 2018-11-21 19:42:02 2020-07-06 03:23:55 1764
Unified Layer 2018-11-21 19:42:46 2020-07-04 03:37:47 1150
Network Solutions 2018-11-21 19:44:03 2020-07-06 03:23:47 231
Micron21 2018-11-21 19:45:03 2019-03-07 20:48:52 4
Cloudflare Hosting 2018-11-21 19:46:09 2020-07-06 06:45:02 9140
Linode 2018-11-21 19:46:27 2020-07-04 23:50:41 2827
Hurricane Electric 2018-11-21 19:46:34 2020-07-04 07:32:25 440
Rackspace Cloud Servers 2018-11-21 19:48:16 2020-04-27 14:47:36 707
Cox Communications 2018-11-21 19:48:20 2020-07-06 14:33:35 174
Connecticut Computer Service 2018-11-21 19:48:20 2018-11-21 19:48:20 0
Bay Area Internet Solutions 2018-11-21 19:49:54 2019-03-24 14:21:00 18
ATT 2018-11-21 19:50:01 2020-07-06 14:33:36 1843
IBM 2018-11-21 19:56:04 2019-12-10 02:18:16 225
Desync Corporation 2018-11-21 19:57:43 2019-10-25 13:58:20 11
Sago Networks 2018-11-21 19:59:02 2019-02-13 03:48:08 7
GMO Internet 2018-11-21 20:00:11 2020-06-08 16:01:48 82
Yahoo 2018-11-21 20:00:16 2020-07-05 14:21:24 572
Joyent Hosting 2018-11-21 20:01:33 2019-09-07 11:42:21 46
BlueHost 2018-11-21 20:02:55 2020-06-27 03:26:41 670
SingleHop 2018-11-21 20:04:54 2020-06-10 05:18:52 979
Vector Internet Services 2018-11-21 20:05:42 2020-04-16 07:40:56 48
Power DNN 2018-11-21 20:06:04 2020-05-05 23:30:10 9
ServerCental 2018-11-21 20:08:12 2020-06-02 06:50:48 457
Redit International 2018-11-21 20:10:02 2020-01-01 22:32:51 14
Core NAP 2018-11-21 20:14:05 2020-05-29 23:38:46 36
Choopa 2018-11-21 20:20:08 2020-06-03 14:35:27 237
Comcast 2018-11-21 20:20:35 2020-07-03 02:23:09 653
XO Communications 2018-11-21 20:28:15 2020-07-07 05:53:51 1366
WordPress Hosting 2018-11-21 20:33:04 2020-07-04 23:51:26 1233
ServerBeach 2018-11-21 20:33:05 2020-04-18 20:16:34 907
Cogeco Peer 1 2018-11-21 20:33:08 2020-05-27 23:10:17 704
Aplus.net 2018-11-21 20:38:06 2019-11-05 18:28:33 6
Steadfast 2018-11-21 20:38:07 2020-06-02 06:50:55 106
Hosting.com 2018-11-21 20:39:20 2019-10-19 07:57:58 56
SAY Media 2018-11-21 20:39:49 2020-05-18 13:37:17 231
TypePad Hosting 2018-11-21 20:39:51 2020-05-18 13:37:17 127
Endurance International 2018-11-21 20:41:04 2020-05-29 22:25:04 205
Bizland 2018-11-21 20:41:04 2020-05-27 18:51:11 121
Onvoy 2018-11-21 20:42:14 2019-01-20 14:56:26 11
ViaWest 2018-11-21 20:42:49 2020-05-29 23:39:47 354
Layered Tech 2018-11-21 21:12:04 2020-06-02 06:50:45 489
Arvixe 2018-11-21 21:17:02 2020-03-02 21:07:46 54
Logic Boxes 2018-11-21 21:17:04 2019-12-03 17:08:47 113
LeaseWeb 2018-11-21 21:21:12 2020-07-04 22:06:03 1210
Syptec 2018-11-21 21:26:02 2018-11-30 16:24:04 6
Performance Systems International 2018-11-21 21:26:03 2020-07-04 16:36:02 68
HopOne 2018-11-21 21:26:08 2019-11-04 03:24:48 55
Psychz Networks 2018-11-21 21:26:46 2020-05-23 19:59:49 32
DataPipe 2018-11-21 21:35:15 2020-07-06 14:33:09 960
INETu 2018-11-21 21:35:16 2020-05-29 23:39:34 76
InterServer 2018-11-21 21:39:02 2020-06-02 06:51:08 46
Squarespace Hosted 2018-11-21 21:51:53 2020-07-02 06:43:41 957
Register.com Hosting 2018-11-21 22:02:01 2019-09-20 18:04:32 34
PowWeb 2018-11-21 22:08:10 2019-12-09 03:01:37 21
Private Systems Networks 2018-11-21 22:13:38 2020-06-02 06:50:43 90
Hivelocity Hosting 2018-11-21 22:17:09 2020-06-02 06:50:51 202
Staminus Communications 2018-11-21 22:33:21 2019-02-26 23:54:15 88
TulsaConnect 2018-11-21 22:45:03 2018-12-02 10:12:04 2
Heroku 2018-11-21 22:50:17 2020-05-10 16:58:47 330
Telnet Worldwide 2018-11-21 23:00:02 2018-11-21 23:00:02 0
HostDime 2018-11-21 23:04:02 2020-07-07 16:18:32 194
QTS 2018-11-21 23:22:02 2020-07-01 05:14:42 138
BlueCentral 2018-11-21 23:23:59 2018-12-01 09:24:11 33
Adobe Systems 2018-11-21 23:25:19 2020-03-25 15:27:02 394
FireHost 2018-11-21 23:33:04 2020-05-10 17:01:11 145
Database by Design 2018-11-21 23:35:38 2019-01-06 14:52:33 13
GNAX 2018-11-21 23:45:52 2020-06-02 06:50:58 121
CoreLink Data Centers 2018-11-21 23:50:04 2020-05-18 13:35:44 62
TotalChoice Hosting 2018-11-21 23:53:05 2018-11-24 04:07:28 1
Edgewebhosting.net 2018-11-22 14:01:02 2019-12-17 15:02:37 55
Blue Box Group 2018-11-22 14:45:09 2019-05-16 15:26:08 43
Acenet 2018-11-22 14:45:09 2020-03-18 19:45:42 56
Black Lotus 2018-11-22 15:05:43 2019-03-10 17:24:08 52
Mediacom Communications 2018-11-22 15:07:01 2020-01-09 03:40:07 82
Namecheap Hosting 2018-11-22 15:09:04 2020-07-04 07:32:26 114
Oversee.net Hosted 2018-11-22 15:10:23 2019-07-31 04:17:14 44
Colo4 2018-11-22 15:12:04 2019-12-16 02:41:13 135
Dyn Hosting 2018-11-22 15:13:02 2020-05-10 16:59:17 546
Tiggee 2018-11-22 15:17:49 2020-07-03 14:48:18 319
DNS Made Easy 2018-11-22 15:17:49 2020-07-03 14:48:18 284
Webzilla 2018-11-22 15:17:50 2019-02-26 21:26:08 85
Cyber Wurx 2018-11-22 15:24:01 2018-12-06 20:28:10 8
Windstream Communications 2018-11-22 15:35:20 2020-05-09 09:00:05 54
The New York Internet Company 2018-11-22 15:42:29 2019-12-09 02:08:31 119
Verisign Hosting 2018-11-22 15:49:19 2020-05-29 02:06:34 91
Implex.net 2018-11-22 15:50:14 2019-05-17 15:03:49 14
Nexcess 2018-11-22 16:13:27 2020-06-03 14:35:51 147
InMotion Hosting 2018-11-22 16:15:07 2020-07-06 06:43:43 242
Jack Henry 2018-11-22 16:16:13 2019-09-26 00:16:37 26
ISPrime Hosting 2018-11-22 16:18:02 2019-01-10 18:02:56 42
Total Server Solutions 2018-11-22 16:18:03 2020-06-02 06:50:48 74
Cloud Access 2018-11-22 16:32:06 2019-01-01 16:43:01 17
ServInt 2018-11-22 16:32:39 2020-06-02 06:50:54 99
Hardland Financial 2018-11-22 16:47:38 2019-04-03 23:34:01 36
Invision 2018-11-22 17:30:02 2019-02-13 01:14:28 12
Logicworks 2018-11-22 17:39:22 2019-04-27 07:10:03 12
SwitchNAP 2018-11-22 17:53:36 2020-03-18 19:46:11 44
HostNine 2018-11-22 17:57:44 2018-12-06 07:47:51 18
Tierpoint 2018-11-22 17:57:46 2020-07-03 23:29:12 396
Bright House Networks 2018-11-22 18:11:06 2019-04-23 09:49:46 47
Omnis Network 2018-11-22 18:14:03 2019-04-16 23:31:04 2
IX Web Hosting 2018-11-22 18:25:34 2020-05-05 21:32:13 51
WireSix 2018-11-22 18:55:03 2019-01-22 18:02:36 26
VolumeDrive 2018-11-22 18:55:03 2019-01-18 06:23:28 17
NetStandard 2018-11-22 19:30:12 2019-06-10 11:46:04 18
Lunar Pages 2018-11-22 19:31:25 2020-06-02 06:51:03 53
Thomson Reuters 2018-11-22 19:32:02 2019-12-21 00:11:44 9
OLM 2018-11-22 19:34:49 2019-04-03 08:01:53 69
Limestone Networks 2018-11-22 19:53:41 2020-05-25 05:10:37 140
Wowrack.com 2018-11-22 19:59:55 2019-11-30 01:16:41 23
FDC Servers 2018-11-22 20:07:04 2020-06-02 06:51:28 103
California State University Network 2018-11-22 20:21:20 2020-06-04 11:36:25 16
Cosentry.Net 2018-11-22 20:21:29 2019-08-30 15:12:01 39
Arsalon Technologies 2018-11-22 20:21:34 2019-12-20 16:58:36 7
WebNX 2018-11-22 20:24:04 2019-03-31 17:41:24 61
The Small Business Authority 2018-11-22 21:16:02 2020-05-14 03:13:12 46
Verio 2018-11-22 21:17:02 2020-05-30 06:56:15 19
Energy Group Hosting 2018-11-22 21:22:08 2020-07-04 07:32:25 34
Navisite 2018-11-22 21:26:23 2020-04-07 19:48:07 44
Corporate Colocation 2018-11-22 22:03:28 2020-07-06 06:43:46 68
Intuit 2018-11-22 22:13:51 2019-03-15 05:06:44 34
Peak 10 2018-11-22 22:31:03 2020-05-29 13:14:20 257
VPS Datacenter 2018-11-22 22:39:10 2020-07-06 06:44:13 39
Weebly Hosting 2018-11-22 22:42:47 2020-06-08 19:15:25 71
Immedion 2018-11-22 22:46:10 2019-05-14 11:54:15 18
QuadraNet 2018-11-22 22:51:09 2020-01-09 02:49:11 82
CIFNet 2018-11-22 23:01:15 2019-01-06 01:08:32 34
Internet Brands 2018-11-22 23:12:03 2019-01-30 04:14:07 36
A Small Orange 2018-11-22 23:31:13 2020-02-27 01:36:58 11
Cox Enterprises 2018-11-22 23:56:11 2018-12-12 01:00:23 6
BlackMesh 2018-11-23 00:25:42 2020-02-27 21:48:50 95
Turner Broadcasting 2018-11-23 00:30:27 2018-12-26 18:18:36 51
Microsoft Office 365 2018-11-23 00:42:02 2019-01-05 00:49:05 4
GigeNET 2018-11-23 00:44:01 2020-01-29 00:16:17 65
Data Foundry 2018-11-23 00:49:04 2020-06-06 09:12:21 80
Admo.net 2018-11-23 01:11:34 2019-12-19 00:25:22 8
GoGrid 2018-11-23 01:24:06 2019-12-10 04:18:02 79
WiredTree 2018-11-23 01:28:21 2020-06-04 01:11:24 131
IO Data Centers 2018-11-23 02:16:03 2020-07-07 16:18:27 29
Webair 2018-11-23 02:22:19 2019-11-25 23:34:51 40
Reflected Networks 2018-11-23 02:22:21 2019-05-15 03:43:25 62
PaeTec Communications 2018-11-23 02:34:51 2019-11-05 01:40:33 67
Native Hosting 2018-11-23 02:50:20 2019-01-07 23:55:59 12
Front Range Internet 2018-11-23 02:56:02 2020-06-08 18:28:16 5
Swiftwill 2018-11-23 03:06:05 2019-05-15 03:43:20 49
MojoHost 2018-11-23 03:06:12 2020-04-20 21:14:35 34
Suddenlink Communications 2018-11-23 03:22:02 2019-02-01 13:21:03 6
Interspire Hosted 2018-11-23 03:30:03 2020-03-25 17:47:12 16
UnitedLayer 2018-11-23 03:48:34 2019-08-30 20:48:04 61
GearHost 2018-11-23 04:46:17 2020-02-06 20:25:01 8
eNom Hosting 2018-11-23 05:00:28 2020-05-27 18:51:14 371
Intermedia Hosting 2018-11-23 05:02:54 2019-10-30 00:23:56 9
VistaPrint 2018-11-23 05:10:00 2019-03-06 07:55:01 2
Datagram 2018-11-23 05:13:43 2018-12-19 03:18:14 36
Site5 2018-11-23 05:16:04 2020-03-02 12:32:04 74
HostRocket 2018-11-23 05:24:18 2020-04-02 15:29:46 36
Synthesis 2018-11-23 05:26:58 2019-04-12 23:58:18 72
WeHostWebSites.com 2018-11-23 05:33:02 2020-01-08 22:35:35 58
Sharktech 2018-11-23 05:41:05 2020-07-04 07:32:25 28
Shark Tech 2018-11-23 05:41:06 2019-02-01 20:15:03 11
IO Flood 2018-11-23 05:41:15 2018-11-25 22:01:04 3
Input Output Flood 2018-11-23 05:41:15 2019-01-01 19:19:06 10
MULTACOM 2018-11-23 06:04:07 2020-06-02 03:46:47 12
MarkMonitor 2018-11-23 06:07:49 2020-07-04 08:39:43 3
QX.Net 2018-11-23 06:23:08 2019-01-23 15:39:13 5
Charter Communications 2018-11-23 06:23:24 2020-06-08 12:50:18 212
Hover 2018-11-23 06:30:02 2020-01-01 01:02:52 35
OpenSRS 2018-11-23 06:30:05 2020-01-01 01:02:52 55
JustHost 2018-11-23 06:36:48 2020-05-10 21:45:05 37
ColoCrossing 2018-11-23 06:38:59 2019-01-07 22:02:33 45
Netgate 2018-11-23 06:39:03 2018-11-23 06:39:03 0
Waveform Technology 2018-11-23 06:55:03 2019-01-11 08:17:46 5
Managed Way 2018-11-23 06:55:04 2019-04-24 14:34:15 17
Advanced Internet Technologies 2018-11-23 07:23:03 2018-11-23 07:24:59 3
Corporation Service Company 2018-11-23 08:19:38 2020-04-11 05:43:48 153
Altushost 2018-11-23 08:23:04 2018-12-15 07:17:58 7
XL Host 2018-11-23 09:27:33 2019-04-09 13:20:02 38
Vault Networks 2018-11-23 09:27:34 2019-01-07 20:50:37 17
GSI Hosting 2018-11-23 09:27:35 2019-01-12 17:29:40 7
Volico 2018-11-23 09:27:37 2018-12-18 08:50:59 4
Cogent Communications 2018-11-23 09:45:59 2020-05-14 18:09:33 79
Prana Systems 2018-11-23 09:46:01 2018-12-13 21:50:28 25
180Servers.com 2018-11-23 10:40:12 2019-12-17 21:59:32 15
iland 2018-11-23 10:46:11 2020-06-07 08:05:55 17
Web.com Hosting 2018-11-23 10:47:07 2019-12-05 04:05:55 111
ipHouse 2018-11-23 10:47:09 2019-02-08 12:09:01 43
Disney Online 2018-11-23 11:01:22 2019-01-06 16:35:05 51
US Signal 2018-11-23 11:08:36 2019-11-14 10:54:01 28
State of NC 2018-11-23 11:22:09 2018-12-09 19:15:05 24
Frontier Communications 2018-11-23 11:29:12 2020-07-03 02:23:42 221
Allstream 2018-11-23 11:41:02 2020-04-02 19:51:55 48
AOL 2018-11-23 11:47:31 2019-01-08 08:07:15 94
Take 2 Hosting 2018-11-23 11:57:05 2018-12-30 18:21:01 12
Mage Mojo 2018-11-23 12:26:41 2019-12-10 02:56:58 7
Equinix 2018-11-23 12:39:52 2019-11-03 23:43:03 111
Advanced Hosters 2018-11-23 12:49:30 2019-02-28 13:08:04 57
Landis Holdings 2018-11-23 13:11:49 2020-06-02 06:51:00 31
InfoRelay Online Systems 2018-11-23 13:14:56 2019-07-29 06:35:36 35
C7 Data Centers 2018-11-23 13:18:10 2019-07-21 07:27:35 28
QuinStreet 2018-11-23 13:23:05 2019-02-20 08:48:01 34
PIPE Networks 2018-11-23 13:42:06 2018-11-30 02:04:53 13
Clickability Hosting 2018-11-23 13:57:17 2019-01-22 13:22:24 46
Web Werks 2018-11-23 14:21:22 2019-03-18 22:49:12 11
Adhost 2018-11-23 14:53:50 2019-01-10 12:25:47 66
BurstNET 2018-11-23 15:03:01 2020-02-26 02:31:00 77
CoreSpace 2018-11-23 15:03:06 2020-05-18 01:27:52 6
Joe's Datacenter 2018-11-23 15:22:03 2018-12-25 12:08:24 1
eCollege.com 2018-11-23 15:37:03 2019-01-07 18:04:42 9
Sonoma Interconnect 2018-11-23 16:11:05 2020-05-02 23:46:37 16
Iserv 2018-11-23 16:29:07 2018-12-15 03:28:56 1
Netzero 2018-11-23 17:17:13 2018-12-22 14:31:01 3
Nobis Technology Group 2018-11-23 17:17:15 2020-07-04 22:06:03 109
Zerolag 2018-11-23 17:17:58 2020-05-02 04:25:05 127
Knology 2018-11-23 17:49:04 2020-05-08 18:10:28 19
nFrame 2018-11-23 17:51:38 2018-12-06 02:06:30 23
LightBound 2018-11-23 17:51:55 2019-12-12 16:08:53 12
NetSuite Hosting 2018-11-23 19:08:29 2019-03-04 10:08:45 70
Net Access Corportation 2018-11-23 19:13:59 2020-03-31 19:32:38 43
Norlight 2018-11-23 19:34:03 2019-10-03 16:47:32 2
YesUp 2018-11-23 19:39:06 2019-02-02 04:10:28 36
MOREnet 2018-11-23 19:43:07 2019-11-11 17:19:32 4
Apyl 2018-11-23 20:24:03 2019-01-04 03:51:02 1
Volusion Hosting 2018-11-23 20:25:15 2020-01-08 17:33:09 40
Sungard Ireland 2018-11-23 21:23:35 2019-03-06 02:56:18 8
Viacom 2018-11-23 22:06:44 2018-12-29 15:30:46 21
Carpathia Hosting 2018-11-23 22:38:23 2019-08-30 20:48:08 131
Fluid Hosting 2018-11-23 22:46:24 2019-03-30 20:53:01 2
Planet-Work 2018-11-23 23:27:18 2019-01-08 10:57:21 4
Planet-Work 2018-11-23 23:27:18 2019-01-08 10:57:21 4
Illinois Century Network 2018-11-24 00:19:22 2019-03-18 14:38:01 20
EasyStreet 2018-11-24 00:20:11 2019-01-08 10:14:25 20
Alestra 2018-11-24 00:23:02 2019-01-02 21:27:33 6
MidPhase 2018-11-24 01:05:05 2020-02-08 14:45:42 48
Continuum Data Centers 2018-11-24 01:07:23 2018-12-19 18:54:11 11
American Internet 2018-11-24 03:15:44 2020-07-03 02:22:50 43
American Internet Services 2018-11-24 03:15:44 2020-07-03 02:22:50 43
Latisys-Irvine 2018-11-24 03:44:52 2020-05-29 02:06:36 34
123.Net 2018-11-24 04:07:29 2019-11-14 06:52:52 10
ColoSpace 2018-11-24 04:23:00 2019-08-30 15:11:47 37
Central Host 2018-11-24 04:38:12 2020-04-17 03:07:11 15
Net2EZ 2018-11-24 04:38:40 2020-06-05 19:38:48 225
Active Network 2018-11-24 05:19:05 2019-10-26 09:31:57 11
WholeSale Internet 2018-11-24 06:19:01 2019-01-20 18:57:08 31
MonsterCommerce 2018-11-24 06:38:20 2019-04-02 03:11:32 14
Carolina Internet 2018-11-24 07:02:15 2020-06-02 06:50:55 18
Beyond Hosting 2018-11-24 07:32:34 2020-06-02 06:50:58 21
XMission 2018-11-24 07:34:19 2019-03-05 02:03:26 40
TekLinks 2018-11-24 09:57:08 2019-03-08 04:52:23 4
GSI Commerce Hosted 2018-11-24 10:17:58 2019-06-04 22:19:44 20
Webvisions 2018-11-24 11:10:53 2018-12-20 08:01:00 11
Cyberverse 2018-11-24 11:52:04 2020-05-11 16:47:19 11
RCN Corporation 2018-11-24 12:30:14 2018-12-11 09:53:37 11
Opus Interactive 2018-11-24 12:33:41 2019-01-08 04:05:19 37
DONet 2018-11-24 14:23:04 2018-11-30 06:16:08 3
Peak Internet 2018-11-24 14:57:01 2018-12-02 15:09:06 9
Atlantic Metro Communications 2018-11-24 15:46:54 2019-01-06 09:17:17 9
Connectria 2018-11-24 15:49:06 2019-02-16 06:31:43 6
Reality Check Network 2018-11-24 16:13:14 2019-03-24 21:51:10 24
Stanford University 2018-11-24 17:21:19 2018-11-24 17:24:58 11
Alentus Corporation 2018-11-24 17:40:14 2018-12-13 23:34:41 3
LightEdge Solutions 2018-11-24 17:47:39 2019-04-27 07:08:34 25
NJIIX 2018-11-24 17:49:54 2020-06-02 06:51:06 34
SunGard UK 2018-11-24 18:01:24 2019-03-10 16:06:01 29
DataCenter.BZ 2018-11-24 18:09:34 2019-12-21 04:36:46 6
Zcolo 2018-11-24 18:46:11 2020-01-21 00:47:37 5
Dodo Australia 2018-11-24 19:31:08 2019-01-10 02:44:12 7
Atlantech Online 2018-11-24 19:33:07 2020-01-18 22:17:31 7
Constant Hosting 2018-11-24 21:59:21 2018-12-07 00:49:40 5
Unisys 2018-11-24 22:26:04 2019-08-29 00:00:07 8
Fry 2018-11-24 22:49:11 2020-07-07 05:52:31 8
Vivio Technologies 2018-11-24 23:25:14 2019-09-26 15:08:56 6
Consolidated Communications 2018-11-25 01:08:02 2019-01-23 17:54:32 5
Triple8 Network 2018-11-25 01:21:01 2018-12-05 08:41:18 3
Fibertech Networks 2018-11-25 01:57:02 2020-05-18 15:56:26 29
SmartName Hosting 2018-11-25 02:43:04 2019-10-12 00:41:04 2
NameMedia 2018-11-25 02:43:05 2019-10-12 00:41:04 3
eBoundHost.com 2018-11-25 03:28:08 2020-06-02 06:50:57 11
Amnet Systems 2018-11-25 05:20:48 2018-11-25 05:21:51 3
Turnkey Internet 2018-11-25 06:02:16 2020-05-30 06:56:17 11
Premianet 2018-11-25 06:24:11 2019-01-10 14:45:20 6
HostMonster 2018-11-25 07:22:23 2020-05-27 23:09:40 35
IHNetworks 2018-11-25 07:23:02 2020-05-02 08:08:55 49
ACD.net 2018-11-25 08:19:03 2019-01-22 18:40:00 14
Colocation America Corporation 2018-11-25 08:32:03 2020-03-07 01:02:58 11
Dealer.com 2018-11-25 08:33:02 2020-07-03 02:22:41 33
Telepacific Communications 2018-11-25 09:32:19 2020-06-08 18:29:57 12
United Network 2018-11-25 11:48:10 2019-05-13 02:17:44 8
Onramp Access 2018-11-25 12:01:27 2018-12-14 00:44:41 4
VPLS 2018-11-25 12:41:02 2019-01-06 18:06:00 3
DomCollect 2018-11-25 12:54:01 2019-01-06 09:17:01 5
Data Transmission Network Corporation 2018-11-25 13:38:05 2018-11-25 15:28:04 3
Data Transmission Network Corporation 2018-11-25 13:38:05 2018-11-25 15:28:04 3
Tailor Made Servers 2018-11-25 13:40:07 2019-03-22 01:28:04 22
M5 Computer Security 2018-11-25 17:08:13 2019-01-08 17:02:37 10
Green House Data 2018-11-25 17:42:17 2020-05-24 14:13:41 16
OpSource 2018-11-25 23:09:50 2019-01-31 19:21:01 33
Infinity Internet 2018-11-26 00:02:16 2019-01-06 15:25:02 39
US Internet 2018-11-26 15:51:04 2019-01-26 15:23:11 7
Atlantic.net 2018-11-26 17:21:08 2020-03-21 10:51:33 7
Nexus Management 2018-11-26 19:49:09 2019-01-25 13:45:22 2
PioneerLabs 2018-11-26 22:39:05 2020-01-14 05:59:19 55
Basin Electric 2018-11-27 00:56:03 2018-11-27 00:56:08 1
Alchemy 2018-11-27 02:06:18 2019-12-19 07:35:33 239
dotCOM host 2018-11-27 03:13:51 2018-11-27 03:14:07 2
Marchex Hosting 2018-11-27 03:39:02 2019-01-06 14:35:26 6
E Solutions 2018-11-27 03:55:04 2018-12-09 00:53:05 1
Binary Net 2018-11-27 04:03:52 2018-12-12 00:49:49 3
New Edge Networks 2018-11-27 04:35:36 2018-11-27 04:35:38 1
Xand 2018-11-27 07:11:07 2019-01-10 19:36:51 15
Web HostingPad 2018-11-27 08:18:43 2019-01-21 16:06:56 2
Host Ventures 2018-11-27 08:53:03 2019-03-28 02:15:03 6
Brinkster 2018-11-27 11:35:23 2019-02-19 01:40:03 14
Cincinnati Bell 2018-11-27 13:17:06 2020-03-31 19:32:46 7
CoreExchange 2018-11-27 13:52:01 2019-03-08 03:29:08 29
Mikrotec 2018-11-27 15:53:02 2019-01-08 17:02:38 5
Socket Internet Services Corporation 2018-11-27 17:23:02 2019-01-12 11:46:03 3
SupraNet Communications 2018-11-27 19:49:15 2019-05-15 20:12:27 9
Semaphore 2018-11-27 19:56:10 2018-11-27 19:56:10 0
Zipcon 2018-11-27 19:56:15 2018-11-27 19:56:15 0
Digital West 2018-11-27 22:06:52 2019-02-22 01:15:03 11
Fast Serv Networks 2018-11-27 22:09:06 2018-12-14 05:48:21 2
Tierzero 2018-11-27 22:31:18 2020-06-07 08:05:50 27
Cobalt 2018-11-28 01:04:00 2019-02-13 11:22:24 7
PI Host 2018-11-28 01:06:12 2020-05-08 02:59:46 17
Bella Mia 2018-11-28 02:35:02 2018-11-28 02:39:23 6
digital.forest 2018-11-28 23:59:03 2019-05-13 23:27:26 5
NatCoWeb 2018-11-29 15:32:39 2018-12-25 02:46:25 3
Silverpop Hosting 2018-11-29 17:03:43 2019-07-18 06:47:55 25
Involta 2018-11-29 17:31:44 2020-03-02 21:38:42 9
TCH International 2018-11-29 18:22:16 2018-11-29 18:24:27 5
Windstream 2018-11-29 18:37:25 2020-04-16 07:40:59 36
DWD Technologies 2018-11-29 20:21:31 2018-11-29 20:21:31 0
Virtacore Systems 2018-11-29 21:07:51 2019-09-26 23:29:46 11
MarketLive 2018-11-29 21:56:28 2018-12-24 02:32:41 11
JumpTV 2018-11-29 22:58:26 2019-04-30 18:11:14 10
Cargo Collective Hosted 2018-11-29 23:51:01 2018-12-17 03:00:03 1
Cablevision Systems 2018-11-29 23:54:38 2020-05-24 18:19:02 45
Reliable Hosting.com 2018-11-30 00:02:04 2018-11-30 00:02:04 0
Global IP Networks 2018-11-30 01:02:51 2019-10-29 21:56:58 5
Quantum Communications 2018-11-30 02:18:00 2018-11-30 02:18:17 2
DC74 2018-11-30 02:25:11 2018-12-18 23:57:00 2
ISOMEDIA 2018-11-30 05:18:01 2018-12-20 22:17:33 2
Atomic Data 2018-11-30 06:16:01 2019-02-09 01:41:05 3
Auctiva 2018-11-30 07:40:04 2018-11-30 07:40:08 2
CNServices 2018-11-30 12:29:01 2020-06-09 14:44:29 5
CompleteWeb.Net 2018-11-30 15:18:25 2018-11-30 15:18:25 0
TierraNet 2018-11-30 16:26:01 2019-03-05 08:41:11 26
CariNet 2018-11-30 16:26:47 2019-03-28 18:35:45 22
SolidTools Technology 2018-11-30 16:41:01 2020-01-09 02:49:12 2
Integra Telecom 2018-11-30 19:27:40 2019-07-21 03:16:13 22
Fork Networking 2018-11-30 19:53:11 2018-11-30 19:53:24 2
Quasar Data Center 2018-12-01 09:25:22 2018-12-01 09:26:15 2
4 Less Communications 2018-12-01 09:30:24 2018-12-01 09:31:49 3
One Communications 2018-12-01 09:41:05 2018-12-03 03:37:36 2
BroadRiver Communication 2018-12-01 09:55:15 2019-05-13 11:16:25 9
EarthLink Cloud 2018-12-01 10:02:01 2018-12-11 04:31:04 2
MochaHost 2018-12-01 19:41:04 2018-12-01 19:41:04 0
Dominion Enterprises 2018-12-01 21:34:13 2019-06-11 02:06:36 2
YelloFiber 2018-12-02 10:10:02 2019-01-08 05:46:02 14
Access Integrated Technologies 2018-12-02 15:34:02 2018-12-02 15:34:06 1
TravelCLICK 2018-12-02 15:46:04 2020-03-07 01:03:45 7
TowardEX 2018-12-02 22:06:37 2018-12-18 17:50:13 7
Hunt Brothers 2018-12-03 02:23:01 2019-08-06 14:10:21 6
Accretive Networks 2018-12-03 11:39:09 2018-12-23 18:21:05 1
FC2 2018-12-03 14:33:02 2018-12-22 08:31:01 5
GridFury 2018-12-03 17:19:01 2019-11-05 18:59:18 4
Logical Net 2018-12-03 17:26:01 2018-12-03 17:26:05 1
NationalNet Hosting 2018-12-03 19:19:07 2020-03-25 17:47:04 7
Profitability.net 2018-12-03 19:22:06 2018-12-03 19:23:05 3
Netfronts 2018-12-03 23:46:05 2018-12-03 23:46:05 0
Bird Hosting 2018-12-03 23:50:07 2018-12-03 23:51:15 11
Dotster 2018-12-04 01:48:06 2018-12-04 01:48:10 1
Hostasaurus 2018-12-04 07:17:02 2019-01-12 05:37:27 7
JumpLine 2018-12-04 07:27:01 2019-03-31 00:12:55 16
serverloft 2018-12-04 09:20:11 2019-01-10 16:38:04 5
HostCollective 2018-12-04 11:01:05 2019-11-18 00:14:22 14
TrafficZ Hosted 2018-12-04 15:39:00 2018-12-04 15:39:05 1
State of Minnesota 2018-12-04 21:22:22 2018-12-04 21:25:06 6
CDW 2018-12-04 21:57:03 2019-01-06 10:29:14 8
DirectSpace Networks 2018-12-04 23:34:08 2018-12-04 23:34:08 0
N.T. Technology 2018-12-05 01:49:00 2018-12-20 19:00:21 4
Xeex 2018-12-05 07:19:13 2018-12-05 07:19:13 0
AiNET 2018-12-05 08:35:06 2018-12-05 08:35:14 2
Ubiquity Servers 2018-12-05 10:41:08 2019-01-22 18:02:24 6
Southwest Cyberport 2018-12-05 13:12:06 2018-12-05 13:12:06 0
Broadview Networks 2018-12-05 18:10:38 2018-12-05 18:11:43 5
Allied Telecom 2018-12-05 18:16:51 2020-07-03 20:58:03 8
SKA Technology 2018-12-06 01:21:03 2019-02-25 22:18:10 3
1-800-Hosting 2018-12-06 02:47:12 2019-01-12 03:49:17 14
Irides 2018-12-06 06:25:57 2018-12-06 06:26:28 2
Computer Country 2018-12-06 12:43:45 2018-12-06 12:43:45 0
Data102 2018-12-06 13:50:50 2018-12-11 03:51:02 3
OnyxLight Communications 2018-12-07 10:15:03 2020-01-19 15:21:29 4
CISP 2018-12-07 12:13:40 2019-01-07 18:00:04 1
Gannett 2018-12-08 01:39:30 2020-05-14 06:22:44 4
Micfo 2018-12-08 12:47:49 2018-12-08 12:47:58 8
LocalNet 2018-12-08 12:47:50 2018-12-08 12:47:51 1
InfoQuest Technologies 2018-12-08 15:35:08 2018-12-14 20:49:58 3
Great Lakes Comnet 2018-12-10 16:10:12 2019-02-22 03:13:02 2
Atmlink 2018-12-10 18:07:37 2018-12-10 18:07:37 0
HostPaPa 2018-12-12 03:17:31 2019-04-15 18:31:24 6
Enventis 2018-12-12 06:27:04 2019-02-04 18:41:29 4
NetRiver 2018-12-12 11:25:04 2019-01-18 03:47:39 10
TDS telecom 2018-12-12 11:48:21 2020-01-09 14:54:39 5
Silicon Valley Web Hosting 2018-12-13 01:03:15 2018-12-19 12:52:13 1
Speakeasy 2018-12-13 13:08:08 2020-02-23 01:45:07 1
Terremark 2018-12-14 01:11:17 2018-12-14 01:11:17 0
Versaweb 2018-12-14 05:48:22 2019-10-21 11:58:30 14
Creative Network Innovations 2018-12-14 13:37:50 2018-12-15 10:04:23 2
Optic Fusion 2018-12-14 15:32:00 2019-01-27 10:51:41 3
Iowa State University 2018-12-14 21:44:00 2019-03-06 18:46:02 1
SolidSpace 2018-12-15 00:31:35 2018-12-15 00:31:35 0
General Pacific 2018-12-15 01:08:36 2019-01-07 15:07:07 2
ActiveHost 2018-12-15 07:45:07 2020-01-29 00:16:12 4
MegaPath 2018-12-18 02:44:28 2019-01-08 04:56:51 2
Illuminated Hosting Service 2018-12-18 04:54:03 2018-12-18 04:54:03 0
FIS Global 2018-12-18 09:36:26 2018-12-18 09:36:26 0
ColocateUSA 2018-12-18 21:54:04 2018-12-18 21:54:04 0
Netsolus 2018-12-19 17:56:48 2019-12-13 19:42:19 13
SmugMug Hosting 2018-12-20 23:46:01 2018-12-20 23:46:11 1
Applied Innovations Corporation 2018-12-21 00:02:22 2018-12-21 00:04:44 3
FeBox 2018-12-21 19:18:03 2018-12-21 19:18:03 0
Solution Pro 2018-12-22 01:10:29 2018-12-22 01:13:16 3
AppServe Technologies 2018-12-26 15:51:46 2018-12-26 15:51:46 0
Tumblr Hosted 2018-12-26 19:06:04 2019-01-06 10:47:56 3
Icon Enterprises 2018-12-28 13:44:57 2019-03-28 18:35:39 6
Worldlink 2018-12-29 15:42:38 2018-12-29 15:43:09 5
DiscountASP 2019-01-01 19:25:07 2019-04-24 15:30:50 5
TaosNet 2019-01-02 22:02:01 2019-01-02 22:02:01 0
Teleflora 2019-01-02 22:57:51 2019-01-02 22:57:51 0
DNS Link 2019-01-03 21:19:01 2019-01-03 21:19:01 0
GoRack 2019-01-08 00:57:29 2019-01-08 00:57:29 0
ActiveServers 2019-01-08 04:03:03 2019-10-15 02:24:37 4
Alpheus Data Services 2019-01-11 10:51:45 2019-01-11 10:51:45 0
Blackfoot 2019-01-11 18:59:49 2019-01-11 19:00:00 1
Host Collective 2019-01-19 16:01:13 2019-11-18 00:14:23 3
Fidelity Voice and Data 2019-01-21 21:35:03 2019-01-21 21:35:05 1
Fairpoint Communications 2019-01-25 13:45:32 2019-01-25 13:45:32 0
Gotham Web Services 2019-01-28 04:35:06 2019-08-13 00:52:48 5
Thomas Technology Solutions 2019-02-07 23:32:41 2019-02-07 23:33:03 1
iVenue.com 2019-02-08 10:51:01 2019-02-08 10:51:01 0
Colo5 2019-02-09 13:33:12 2020-04-14 02:02:33 2
Fiberpipe 2019-02-19 21:02:16 2019-02-19 21:02:39 1
ICG Link 2019-03-05 07:01:58 2019-03-05 07:02:30 1
PenTeleData 2019-03-29 20:59:53 2019-03-29 20:59:58 1
C.C.S. Leeds 2019-03-30 06:41:02 2019-03-30 06:41:18 1
North Tone Systems 2019-04-09 17:07:04 2019-04-09 17:07:20 1
Global Crossing 2019-04-11 21:35:02 2019-04-11 21:35:08 1
NVC Internet 2019-04-23 07:03:14 2019-04-23 07:03:14 0
Simple Helix 2019-05-13 23:27:26 2019-05-13 23:27:26 0
Tilted Planet 2019-05-14 00:16:45 2019-05-14 00:16:45 0
Bluemile 2019-07-22 01:50:39 2019-07-22 01:50:39 0
IFX 2019-07-24 01:01:10 2019-12-02 01:40:27 7
Venyu Solutions 2019-08-30 20:42:54 2019-08-30 20:45:34 2
QWK.net Hosting 2019-08-30 22:05:34 2019-08-30 22:05:34 0
PixelGate 2019-09-17 11:24:43 2019-09-17 11:24:43 0
Bandzoogle 2019-10-17 17:08:46 2019-10-17 17:08:46 0
Perot Systems 2019-11-05 05:14:24 2019-11-05 05:16:25 1
Clear Channel Communications Hosting 2019-11-18 20:50:31 2020-01-21 20:25:31 1
Newtek 2019-12-05 03:09:41 2020-05-31 11:57:03 4
Covad Communications 2020-01-08 17:33:11 2020-02-23 01:45:06 2
Sofnet 2020-02-06 20:22:11 2020-03-12 19:58:49 6
Galaxyvisions 2020-04-22 03:49:09 2020-04-22 03:49:09 0
RamNode 2020-05-03 13:30:05 2020-05-03 13:30:05 0
atjeu publishing 2020-06-02 06:46:25 2020-06-02 06:50:56 4
Network Transit Holdings 2020-06-02 06:46:37 2020-06-02 06:51:09 2
Amazon Ohio Region 2020-06-08 18:24:03 2020-07-04 23:50:44 35
Affordable Internet Services Online 2020-07-03 23:29:04 2020-07-03 23:29:04 0